User: anonymous
Location: Dover
(39.1580°N, 75.5250°W)
Time: 01:32:53
(UTC-04:00)
Language:

SeaSat 1 - Orbit

View from above orbital plane
View from above orbital plane
View from above satellite
View from above satellite

Ground track
Ground track

The orbit data is extracted from the following two-line orbital elements,

1 10967U 78064A   14107.79799372  .00000546  00000-0  20346-3 0  2619
2 10967 107.9902 045.2104 0000998 285.2884 141.9927 14.42979870879763
Epoch (UTC): 17 April 2014 19:09:06
Eccentricity: 0.0000998
inclination: 107.9902°
perigee height: 748 km
apogee height: 749 km
right ascension of ascending node: 45.2104°
argument of perigee: 285.2884°
revolutions per day: 14.42979870
mean anomaly at epoch: 141.9927°
orbit number at epoch: 87976

The dashed part of the orbit path shows where the satellite is in the earth's shadow,  

DLR